Date String (YYYY-MM-DD hh:mm:ss) UTC,Instrument flags,Ambient pressure (hPa),Sample flow (lpm),Bypass flow (lpm),Sample temperature (°C),Ambient temperature (°C),ASC tube jacket temperature (°C),LED temperature (°C),Box temperature (°C),Sample RH (%),Span deviation,Mass concentration (μg/m³),Mass concentration (μg/m³),Mass concentration (μg/m³)
DateTimeUTC,F1_M11,P_M11,Q1_M11,Q2_M11,T1_M11,T2_M11,T3_M11,T4_M11,T5_M11,U1_M11,ZSPAN_M11,X0_M11,X2_M11,X1_M11
2021-11-06 08:00:00,,0829.0,4.98,0.00,28.8,27.6,00.0,38.0,30.4,08.0,0000.0,0005.13,0001.61,0001.21
2021-11-06 08:01:00,,0828.9,5.01,0.00,28.8,27.6,00.0,38.0,30.5,08.0,0000.0,0005.09,0001.61,0001.21
2021-11-06 08:02:00,,0828.9,4.99,0.00,28.8,27.6,00.0,38.0,30.5,08.1,0000.0,0005.02,0001.59,0001.21
2021-11-06 08:03:00,,0828.9,5.00,0.00,28.8,27.6,00.0,38.0,30.4,08.2,0000.0,0005.07,0001.64,0001.21
2021-11-06 08:04:00,,0829.0,4.99,0.00,28.8,27.7,00.0,38.0,30.5,08.1,0000.0,0004.20,0001.68,0001.21
2021-11-06 08:05:00,,0828.9,5.00,0.00,28.8,27.6,00.0,38.0,30.4,08.1,0000.0,0004.19,0001.70,0001.21
2021-11-06 08:06:00,,0828.9,5.00,0.00,28.8,27.7,00.0,38.0,30.5,08.4,0000.0,0003.02,0001.68,0001.21
2021-11-06 08:07:00,,0828.9,5.01,0.00,28.8,27.7,00.0,37.9,30.5,08.4,0000.0,0004.73,0001.66,0001.20
2021-11-06 08:08:00,,0828.9,5.01,0.00,28.8,27.6,00.0,37.9,30.4,08.3,0000.0,0004.74,0001.66,0001.19
2021-11-06 08:09:00,,0828.9,4.99,0.00,28.8,27.6,00.0,37.9,30.4,08.1,0000.0,0004.69,0001.66,0001.19
2021-11-06 08:10:00,,0828.9,5.00,0.00,28.8,27.6,00.0,37.9,30.4,08.1,0000.0,0004.74,0001.67,0001.19
2021-11-06 08:11:00,,0829.0,5.01,0.00,28.8,27.6,00.0,37.9,30.4,08.0,0000.0,0004.86,0001.68,0001.18
2021-11-06 08:12:00,,0829.0,5.00,0.00,28.8,27.6,00.0,37.9,30.4,08.1,0000.0,0005.09,0001.67,0001.18
2021-11-06 08:13:00,,0828.9,5.01,0.00,28.8,27.6,00.0,37.9,30.4,08.1,0000.0,0005.32,0001.68,0001.17
2021-11-06 08:14:00,,0829.0,5.00,0.00,28.8,27.6,00.0,37.9,30.4,08.2,0000.0,0005.34,0001.66,0001.17
2021-11-06 08:15:00,,0828.9,5.01,0.00,28.8,27.6,00.0,37.9,30.4,08.2,0000.0,0005.25,0001.64,0001.17
2021-11-06 08:16:00,,0828.9,5.00,0.00,28.8,27.6,00.0,37.9,30.4,08.1,0000.0,0005.32,0001.64,0001.16
2021-11-06 08:17:00,,0828.9,4.99,0.00,28.8,27.6,00.0,37.9,30.4,08.1,0000.0,0005.21,0001.65,0001.16
2021-11-06 08:18:00,,0828.9,5.00,0.00,28.8,27.6,00.0,37.9,30.4,08.2,0000.0,0003.52,0001.67,0001.17
2021-11-06 08:19:00,,0828.9,5.00,0.00,28.8,27.6,00.0,37.9,30.4,08.2,0000.0,0003.77,0001.67,0001.16
2021-11-06 08:20:00,,0828.9,5.00,0.00,28.8,27.5,00.0,37.9,30.4,08.3,0000.0,0004.06,0001.69,0001.16
2021-11-06 08:21:00,,0828.9,5.01,0.00,28.8,27.6,00.0,37.9,30.4,08.4,0000.0,0004.66,0001.70,0001.16
2021-11-06 08:22:00,,0828.9,5.01,0.00,28.7,27.6,00.0,37.9,30.4,08.4,0000.0,0005.51,0001.74,0001.16
2021-11-06 08:23:00,,0829.0,5.01,0.00,28.7,27.6,00.0,37.9,30.4,08.3,0000.0,0005.48,0001.77,0001.17
2021-11-06 08:24:00,,0829.0,4.99,0.00,28.7,27.6,00.0,37.8,30.4,08.3,0000.0,0005.34,0001.78,0001.18
2021-11-06 08:25:00,,0829.0,5.00,0.00,28.7,27.6,00.0,37.8,30.4,08.3,0000.0,0005.36,0001.77,0001.17
2021-11-06 08:26:00,,0828.9,4.99,0.00,28.7,27.6,00.0,37.8,30.4,08.4,0000.0,0005.25,0001.74,0001.15
2021-11-06 08:27:00,,0828.9,5.00,0.00,28.7,27.6,00.0,37.8,30.4,08.4,0000.0,0005.05,0001.71,0001.15
2021-11-06 08:28:00,,0828.9,5.00,0.00,28.7,27.6,00.0,37.8,30.4,08.5,0000.0,0004.93,0001.68,0001.16
2021-11-06 08:29:00,,0828.9,5.00,0.00,28.7,27.6,00.0,37.8,30.4,08.4,0000.0,0004.85,0001.66,0001.16
2021-11-06 08:30:00,,0828.9,5.01,0.00,28.7,27.6,00.0,37.8,30.3,08.1,0000.0,0004.70,0001.66,0001.16
2021-11-06 08:31:00,,0828.9,4.99,0.00,28.7,27.6,00.0,37.8,30.3,08.1,0000.0,0004.53,0001.64,0001.15
2021-11-06 08:32:00,,0828.9,4.99,0.00,28.7,27.5,00.0,37.8,30.3,08.2,0000.0,0003.94,0001.65,0001.14
2021-11-06 08:33:00,,0828.9,5.00,0.00,28.7,27.5,00.0,37.8,30.3,08.1,0000.0,0002.90,0001.61,0001.13
2021-11-06 08:34:00,,0828.8,5.00,0.00,28.7,27.5,00.0,37.8,30.3,08.3,0000.0,0002.85,0001.61,0001.11
2021-11-06 08:35:00,,0828.9,5.00,0.00,28.7,27.5,00.0,37.8,30.3,08.4,0000.0,0003.08,0001.63,0001.10
2021-11-06 08:36:00,,0828.9,5.01,0.00,28.7,27.5,00.0,37.8,30.3,08.4,0000.0,0003.13,0001.62,0001.09
2021-11-06 08:37:00,,0828.9,4.98,0.00,28.7,27.5,00.0,37.8,30.3,08.2,0000.0,0003.09,0001.62,0001.10
2021-11-06 08:38:00,,0828.9,4.99,0.00,28.7,27.5,00.0,37.8,30.3,08.1,0000.0,0003.14,0001.64,0001.10
2021-11-06 08:39:00,,0828.9,5.01,0.00,28.7,27.5,00.0,37.8,30.3,08.1,0000.0,0003.29,0001.69,0001.09
2021-11-06 08:40:00,,0828.8,5.01,0.00,28.7,27.5,00.0,37.8,30.3,08.1,0000.0,0003.31,0001.69,0001.08
2021-11-06 08:41:00,,0828.9,5.00,0.00,28.6,27.5,00.0,37.8,30.3,08.1,0000.0,0003.28,0001.69,0001.08
2021-11-06 08:42:00,,0828.9,5.00,0.00,28.6,27.5,00.0,37.8,30.3,08.1,0000.0,0003.41,0001.68,0001.07
2021-11-06 08:43:00,,0828.8,4.99,0.00,28.6,27.5,00.0,37.7,30.3,08.0,0000.0,0003.42,0001.67,0001.07
2021-11-06 08:44:00,,0828.8,5.00,0.00,28.6,27.5,00.0,37.7,30.2,08.1,0000.0,0003.52,0001.69,0001.06
2021-11-06 08:45:00,,0828.8,5.01,0.00,28.6,27.5,00.0,37.7,30.3,08.1,0000.0,0003.42,0001.66,0001.05
2021-11-06 08:46:00,,0828.8,4.99,0.00,28.6,27.5,00.0,37.7,30.3,08.1,0000.0,0003.16,0001.62,0001.04
2021-11-06 08:47:00,,0829.1,5.00,0.00,28.6,27.4,00.0,37.7,30.3,08.1,0000.0,0003.15,0001.59,0001.03
2021-11-06 08:48:00,,0829.1,4.99,0.00,28.6,27.4,00.0,37.7,30.2,08.1,0000.0,0003.15,0001.57,0001.01
2021-11-06 08:49:00,,0829.0,5.00,0.00,28.6,27.4,00.0,37.7,30.2,08.1,0000.0,0003.13,0001.54,0000.99
2021-11-06 08:50:00,,0829.1,5.01,0.00,28.6,27.4,00.0,37.7,30.2,08.1,0000.0,0003.34,0001.50,0000.98
2021-11-06 08:51:00,,0828.9,4.99,0.00,28.6,27.4,00.0,37.7,30.2,08.1,0000.0,0003.85,0001.47,0000.97
2021-11-06 08:52:00,,0828.8,5.02,0.00,28.6,27.4,00.0,37.7,30.2,08.1,0000.0,0003.83,0001.43,0000.97
2021-11-06 08:53:00,,0828.9,5.01,0.00,28.6,27.4,00.0,37.7,30.2,08.1,0000.0,0003.68,0001.42,0000.97
2021-11-06 08:54:00,,0829.0,5.00,0.00,28.6,27.4,00.0,37.7,30.2,08.1,0000.0,0003.63,0001.38,0000.97
2021-11-06 08:55:00,,0829.0,5.00,0.00,28.5,27.4,00.0,37.7,30.2,08.0,0000.0,0003.49,0001.32,0000.96
2021-11-06 08:56:00,,0829.3,5.01,0.00,28.5,27.4,00.0,37.6,30.1,08.0,0000.0,0003.56,0001.32,0000.96
2021-11-06 08:57:00,,0829.1,5.01,0.00,28.5,27.3,00.0,37.6,30.2,08.0,0000.0,0003.59,0001.35,0000.96
2021-11-06 08:58:00,,0828.8,4.99,0.00,28.5,27.3,00.0,37.6,30.2,08.1,0000.0,0004.72,0001.36,0000.96
2021-11-06 08:59:00,,0828.8,4.99,0.00,28.5,27.3,00.0,37.6,30.1,08.3,0000.0,0005.61,0001.35,0000.97
